When you browse on this site, cookies collect data to enhance your experience and personalize the content and advertising you see.
Visit our Privacy Policy to learn more. By continuing to use the site, you agree to this use of cookies and data.

Meteo orario Plymouth

Oggi, 14 Luglio, Martedi

Tempo Temperatura Precipitazioni Vento Pressione Umidità
00:00 +15°C° 0 mm 4 m/s 763 mm Hg 97%
01:00 +15°C° 0 mm 4 m/s 762 mm Hg 97%
02:00 +16°C° 0 mm 3 m/s 762 mm Hg 97%
03:00 +16°C° 0 mm 3 m/s 762 mm Hg 97%
04:00 +16°C° 0 mm 3 m/s 762 mm Hg 96%
05:00 +16°C° 0 mm 3 m/s 762 mm Hg 96%
06:00 +16°C° 0 mm 3 m/s 762 mm Hg 95%
07:00 +17°C° 0 mm 4 m/s 762 mm Hg 90%
08:00 +18°C° 0 mm 4 m/s 762 mm Hg 85%
09:00 +19°C° 0 mm 4 m/s 762 mm Hg 81%
10:00 +19°C° 0 mm 5 m/s 763 mm Hg 78%
11:00 +19°C° 0 mm 6 m/s 763 mm Hg 75%
12:00 +19°C° 0 mm 6 m/s 763 mm Hg 72%
13:00 +17°C° 0 mm 6 m/s 763 mm Hg 71%
14:00 +17°C° 0 mm 7 m/s 763 mm Hg 70%
15:00 +16°C° 0 mm 7 m/s 763 mm Hg 69%
16:00 +16°C° 0 mm 7 m/s 763 mm Hg 72%
17:00 +15°C° 0 mm 7 m/s 763 mm Hg 75%
18:00 +15°C° 0 mm 6 m/s 763 mm Hg 77%
19:00 +14°C° 0 mm 6 m/s 763 mm Hg 81%
20:00 +14°C° 0 mm 5 m/s 763 mm Hg 85%
21:00 +13°C° 0 mm 5 m/s 763 mm Hg 89%
22:00 +13°C° 0 mm 5 m/s 763 mm Hg 89%
23:00 +13°C° 0 mm 4 m/s 763 mm Hg 90%

Domani, 15 Luglio, Mercoledi

Tempo Temperatura Precipitazioni Vento Pressione Umidità
00:00 +13°C° 0 mm 4 m/s 762 mm Hg 90%
01:00 +13°C° 0 mm 4 m/s 762 mm Hg 91%
02:00 +13°C° 0 mm 4 m/s 762 mm Hg 92%
03:00 +13°C° 0 mm 3 m/s 762 mm Hg 93%
04:00 +13°C° 0 mm 4 m/s 762 mm Hg 92%
05:00 +13°C° 0 mm 4 m/s 762 mm Hg 91%
06:00 +14°C° 0 mm 4 m/s 762 mm Hg 91%
07:00 +14°C° 0 mm 4 m/s 762 mm Hg 89%
08:00 +15°C° 0 mm 4 m/s 762 mm Hg 87%
09:00 +15°C° 0 mm 4 m/s 762 mm Hg 85%
10:00 +17°C° 0 mm 4 m/s 762 mm Hg 83%
11:00 +17°C° 0 mm 4 m/s 762 mm Hg 81%
12:00 +18°C° 0 mm 4 m/s 763 mm Hg 78%
13:00 +17°C° 0 mm 5 m/s 763 mm Hg 79%
14:00 +17°C° 0 mm 5 m/s 763 mm Hg 79%
15:00 +17°C° 0 mm 5 m/s 763 mm Hg 79%
16:00 +17°C° 0 mm 5 m/s 763 mm Hg 80%
17:00 +16°C° 0 mm 5 m/s 763 mm Hg 81%
18:00 +16°C° 0 mm 5 m/s 763 mm Hg 82%
19:00 +15°C° 0 mm 4 m/s 763 mm Hg 86%
20:00 +14°C° 0 mm 4 m/s 764 mm Hg 90%
21:00 +13°C° 0 mm 3 m/s 764 mm Hg 93%
22:00 +13°C° 0 mm 3 m/s 764 mm Hg 94%
23:00 +13°C° 0 mm 3 m/s 764 mm Hg 94%

Dopodomani, 16 Luglio, Giovedi

Tempo Temperatura Precipitazioni Vento Pressione Umidità
00:00 +14°C° 0 mm 2 m/s 764 mm Hg 95%
01:00 +14°C° 0 mm 2 m/s 764 mm Hg 95%
02:00 +14°C° 0 mm 2 m/s 764 mm Hg 95%
03:00 +14°C° 0 mm 2 m/s 764 mm Hg 95%
04:00 +15°C° 0 mm 2 m/s 764 mm Hg 95%
05:00 +16°C° 0 mm 2 m/s 764 mm Hg 94%
06:00 +16°C° 0 mm 2 m/s 764 mm Hg 94%
07:00 +18°C° 0 mm 2 m/s 765 mm Hg 88%
08:00 +19°C° 0 mm 3 m/s 765 mm Hg 82%
09:00 +20°C° 0 mm 3 m/s 765 mm Hg 76%
10:00 +20°C° 0 mm 3 m/s 765 mm Hg 75%
11:00 +21°C° 0 mm 4 m/s 766 mm Hg 75%
12:00 +21°C° 0 mm 4 m/s 766 mm Hg 74%
13:00 +22°C° 0 mm 4 m/s 766 mm Hg 75%
14:00 +22°C° 0 mm 5 m/s 766 mm Hg 77%
15:00 +22°C° 0 mm 5 m/s 766 mm Hg 78%
16:00 +21°C° 0 mm 5 m/s 765 mm Hg 80%
17:00 +21°C° 0 mm 5 m/s 765 mm Hg 82%
18:00 +20°C° 0 mm 5 m/s 765 mm Hg 84%
19:00 +19°C° 0 mm 4 m/s 766 mm Hg 88%
20:00 +17°C° 0 mm 4 m/s 766 mm Hg 92%
21:00 +14°C° 0 mm 3 m/s 766 mm Hg 96%
22:00 +14°C° 0 mm 3 m/s 766 mm Hg 96%
23:00 +14°C° 0 mm 3 m/s 765 mm Hg 96%

17 Luglio, Venerdi

Tempo Temperatura Precipitazioni Vento Pressione Umidità
00:00 +13°C° 0 mm 3 m/s 765 mm Hg 96%
01:00 +13°C° 0 mm 3 m/s 765 mm Hg 96%
02:00 +14°C° 0 mm 3 m/s 765 mm Hg 95%
03:00 +14°C° 0 mm 4 m/s 765 mm Hg 94%
04:00 +15°C° 0 mm 4 m/s 765 mm Hg 93%
05:00 +16°C° 0 mm 3 m/s 765 mm Hg 93%
06:00 +16°C° 0 mm 3 m/s 765 mm Hg 92%
07:00 +17°C° 0 mm 3 m/s 765 mm Hg 89%
08:00 +17°C° 0 mm 4 m/s 765 mm Hg 86%
09:00 +18°C° 0 mm 4 m/s 765 mm Hg 83%
10:00 +18°C° 0 mm 4 m/s 765 mm Hg 81%
11:00 +19°C° 0 mm 4 m/s 765 mm Hg 79%
12:00 +20°C° 0 mm 4 m/s 765 mm Hg 77%
13:00 +20°C° 0 mm 4 m/s 765 mm Hg 76%
14:00 +20°C° 0 mm 4 m/s 765 mm Hg 75%
15:00 +20°C° 0 mm 5 m/s 765 mm Hg 74%
16:00 +20°C° 0 mm 4 m/s 765 mm Hg 76%
17:00 +20°C° 0 mm 4 m/s 764 mm Hg 77%
18:00 +19°C° 0 mm 4 m/s 764 mm Hg 78%
19:00 +18°C° 0 mm 4 m/s 764 mm Hg 83%
20:00 +16°C° 0 mm 3 m/s 764 mm Hg 88%
21:00 +14°C° 0 mm 3 m/s 764 mm Hg 93%
22:00 +13°C° 0 mm 3 m/s 764 mm Hg 93%
23:00 +13°C° 0 mm 3 m/s 764 mm Hg 94%

18 Luglio, Sabato

Tempo Temperatura Precipitazioni Vento Pressione Umidità
00:00 +12°C° 0 mm 3 m/s 764 mm Hg 94%
01:00 +12°C° 0 mm 3 m/s 764 mm Hg 95%
02:00 +12°C° 0 mm 3 m/s 763 mm Hg 95%
03:00 +13°C° 0 mm 3 m/s 763 mm Hg 95%
04:00 +13°C° 0 mm 4 m/s 763 mm Hg 95%
05:00 +14°C° 0 mm 4 m/s 763 mm Hg 94%
06:00 +14°C° 0 mm 4 m/s 763 mm Hg 93%
07:00 +16°C° 0 mm 5 m/s 763 mm Hg 89%
08:00 +17°C° 0 mm 5 m/s 763 mm Hg 84%
09:00 +19°C° 0 mm 6 m/s 763 mm Hg 80%
10:00 +19°C° 0 mm 6 m/s 763 mm Hg 81%
11:00 +19°C° 0 mm 6 m/s 763 mm Hg 82%
12:00 +18°C° 0 mm 7 m/s 763 mm Hg 82%
13:00 +19°C° 0 mm 6 m/s 763 mm Hg 85%
14:00 +17°C° 0 mm 6 m/s 763 mm Hg 88%
15:00 +17°C° 0 mm 6 m/s 763 mm Hg 90%
16:00 +17°C° 0 mm 5 m/s 762 mm Hg 92%
17:00 +16°C° 0 mm 5 m/s 762 mm Hg 93%
18:00 +16°C° 0 mm 5 m/s 762 mm Hg 95%
19:00 +17°C° 0.1 mm 4 m/s 763 mm Hg 96%
20:00 +17°C° 0.1 mm 4 m/s 763 mm Hg 97%
21:00 +17°C° 0.1 mm 3 m/s 763 mm Hg 98%
22:00 +16°C° 0 mm 3 m/s 763 mm Hg 96%
23:00 +13°C° 0 mm 3 m/s 763 mm Hg 95%

19 Luglio, Domenica

Tempo Temperatura Precipitazioni Vento Pressione Umidità
00:00 +13°C° 0 mm 2 m/s 763 mm Hg 94%
01:00 +13°C° 0 mm 2 m/s 763 mm Hg 93%
02:00 +12°C° 0 mm 2 m/s 763 mm Hg 92%
03:00 +12°C° 0 mm 2 m/s 763 mm Hg 91%
04:00 +12°C° 0 mm 2 m/s 763 mm Hg 91%
05:00 +13°C° 0 mm 2 m/s 763 mm Hg 90%
06:00 +13°C° 0 mm 2 m/s 763 mm Hg 90%
07:00 +14°C° 0 mm 3 m/s 763 mm Hg 84%
08:00 +17°C° 0 mm 3 m/s 764 mm Hg 78%
09:00 +18°C° 0 mm 3 m/s 764 mm Hg 72%
10:00 +18°C° 0 mm 3 m/s 764 mm Hg 69%
11:00 +19°C° 0 mm 3 m/s 764 mm Hg 67%
12:00 +19°C° 0 mm 3 m/s 764 mm Hg 65%
13:00 +19°C° 0 mm 4 m/s 764 mm Hg 64%
14:00 +19°C° 0 mm 4 m/s 764 mm Hg 63%
15:00 +19°C° 0 mm 5 m/s 764 mm Hg 62%
16:00 +17°C° 0 mm 5 m/s 765 mm Hg 66%
17:00 +17°C° 0 mm 5 m/s 765 mm Hg 70%
18:00 +16°C° 0 mm 5 m/s 765 mm Hg 73%
19:00 +14°C° 0 mm 5 m/s 765 mm Hg 79%
20:00 +13°C° 0 mm 5 m/s 766 mm Hg 84%
21:00 +11°C° 0 mm 4 m/s 766 mm Hg 90%
22:00 +10°C° 0 mm 4 m/s 766 mm Hg 89%
23:00 +9°C° 0 mm 5 m/s 766 mm Hg 87%
Mostrare altro